Location: Newark
(22.3060°N, 114.2134°E)
Time: 07:32:20
(UTC+00:00)

Explorer 11/Cluster Stage 4 - Pass Details

Date: 04 August 2021
Orbit: 467 x 1256 km, 28.8° (Epoch: 24 September)

Event Time Altitude Azimuth Distance (km) Brightness Sun altitude
Rises 02:28:04 0° 282° (WNW) 4,068 9.9 61.1°
Reaches altitude 10° 02:30:57 10° 287° (WNW) 3,163 9.5 61.7°
Maximum altitude 02:38:54 55° 3° (N) 1,479 8.8 63.6°
Drops below altitude 10° 02:46:47 10° 80° (E) 3,143 10.2 65.4°
Sets 02:49:38 0° 84° (E) 4,041 10.6 66.0°
